Regional Weather Roundup
Issued by NWS Sterling, VA

Home | Current Version | Previous Version | Text Only | Print | Product List | Glossary Off
Versions: 1 2 3 4 5 6 7 8 9 10 11 12 13 14 15 16 17 18 19 20 21 22 23 24 25 26 27 28 29 30 31 32 33 34 35 36 37 38 39 40 41 42 43 44 45 46 47 48 49 50

000
ASUS41 KLWX 220110
RWRLWX

REGIONAL WEATHER ROUNDUP
NATIONAL WEATHER SERVICE BALTIMORE MD/WASHINGTON DC
900 PM EDT THU MAY 21 2015

Note: "FAIR" indicates few or no clouds below 12,000 feet
with no significant weather and/or obstructions to visibility.
 TC=TEMPERATURE CELSIUS

 * =Non NWS site. Station does not report precipitation (e.g. rain,
    snow, etc.), thunder, or fog.

DCZ001-MDZ009-015-VAZ040>042-051-053>054-220200-
WASHINGTON METRO

CITY           SKY/WX    TMP DP  RH WIND       PRES   REMARKS
WASHINGTON NAT MOCLDY    55  48  77 N5        29.95S
DULLES         MOCLDY    52  49  89 CALM      29.94F
ANDREWS AFB    MOCLDY    50  48  93 N5        29.93F
FT BELVOIR     MOCLDY    51  49  92 N2        29.94F
QUANTICO       CLOUDY    55  50  83 N7        29.95F
COLLEGE PARK*  MOCLDY    52  50  93 CALM      29.94S
LEESBURG*      CLOUDY    54  52  94 CALM      29.95S
MANASSAS*      CLOUDY    54  52  94 CALM      29.95S
GAITHERSBURG*  CLOUDY    48  45  87 CALM      29.98S

$$

MDZ006>007-011-014-220200-
BALTIMORE METRO

CITY           SKY/WX    TMP DP  RH WIND       PRES   REMARKS
BWI AIRPORT    CLOUDY    52  48  86 NW5       29.93F
MD SCIENCE CTR   N/A     54  47  77 MISG      29.94F
MARTIN STATE   CLOUDY    54  52  94 CALM      29.95F
ANNAPOLIS      CLOUDY    54  49  83 NW8       29.93F
FORT MEADE*    CLOUDY    50  46  87 CALM      29.96F

$$

MDZ012-015-019>023-220200-
MARYLAND EASTERN SHORE

CITY           SKY/WX    TMP DP  RH WIND       PRES   REMARKS
OCEAN CITY     LGT RAIN  53  51  93 NE10      29.88F FOG
SALISBURY      LGT RAIN  51  50  96 N7        29.89F FOG
BAY BRIDGE AP*   N/A    N/A N/A N/A CALM      29.93F
CAMBRIDGE*     CLOUDY    54  50  87 N7        29.91F

$$

MDZ017>025-220200-
SOUTHERN MARYLAND

CITY           SKY/WX    TMP DP  RH WIND       PRES   REMARKS
PATUXENT RIVER CLOUDY    55  52  89 N9        29.91F
ST INIGOES     CLOUDY    55  52  89 CALM      29.91R
LEONARDTOWN*   CLOUDY    52  50  93 CALM      29.94R

$$

MDZ003>005-220200-
NORTH CENTRAL MARYLAND

CITY           SKY/WX    TMP DP  RH WIND       PRES   REMARKS
FREDERICK*     CLOUDY    54  50  87 CALM      29.98S
HAGERSTOWN APT CLOUDY    52  49  89 NW3       29.96R FOG
WESTMINSTER*   CLOUDY    52  46  82 W3        29.94S

$$

MDZ501>502-220200-
WESTERN MARYLAND

CITY           SKY/WX    TMP DP  RH WIND       PRES   REMARKS
OAKLAND*       FOG       41 N/A N/A NW8G18    29.98R VSB 1
CUMBERLAND*    CLOUDY    54  50  87 NW7       30.01R

$$

VAZ025>031-220200-
SHENANDOAH VALLEY

CITY           SKY/WX    TMP DP  RH WIND       PRES   REMARKS
WINCHESTER*    DRIZZLE   54  50  87 CALM      29.95S
FRONT ROYAL*   CLOUDY    52  52 100 CALM      29.94S
LURAY*         DRIZZLE   55  55 100 CALM      29.96R
NEW MARKET*    CLOUDY    54  53  97 CALM      29.95R
STAUNTON*      CLOUDY    55  51  86 CALM      29.97R
WAYNESBORO*    CLOUDY    53  51  92 CALM      29.96R

$$

WVZ021-048>050-054>055-220200-
EASTERN WEST VIRGINIA PANHANDLE

CITY           SKY/WX    TMP DP  RH WIND       PRES   REMARKS
MARTINSBURG    LGT RAIN  53  50  89 N3        29.96R FOG
PETERSBURG*    DRIZZLE   54  48  79 CALM      29.99R

$$

VAZ036>039-050-220200-
CENTRAL FOOTHILLS

CITY           SKY/WX    TMP DP  RH WIND       PRES   REMARKS
CHARLOTTESVILL LGT RAIN  54  51  90 CALM      29.95R
CULPEPER*      CLOUDY    53  51  94 CALM      29.96S
ORANGE*        CLOUDY    54  52  94 CALM      29.96S
GORDONSVILLE*  CLOUDY    53  51  94 CALM      29.95R
WARRENTON*     CLOUDY    54  53  97 CALM      29.94S

$$

VAZ055>057-220200-
NORTH AND CENTRAL PIEDMONT

CITY           SKY/WX    TMP DP  RH WIND       PRES   REMARKS
FREDERICKSBRG* MOCLDY    55  55  97 NW3       29.93F
STAFFORD*      MOCLDY    51  49  92 CALM      29.98S

$$

NCZ024-NYZ072-PAZ021-071-VAZ022-071-220200-
OTHER REGIONAL OBSERVATIONS

CITY           SKY/WX    TMP DP  RH WIND       PRES   REMARKS
NEW YORK CITY  CLOUDY    55  41  59 VRB5      29.94S
PHILADELPHIA   CLOUDY    53  48  83 CALM      29.94F
PITTSBURGH     CLOUDY    52  41  66 NW7       30.00R
ROANOKE        CLOUDY    60  48  64 W15       29.98R
RICHMOND       CLOUDY    56  52  86 N10       29.92R
RALEIGH        MOCLDY    62  57  83 NE7       29.92R

$$

ANZ530>537-220200-
MARINE OBSERVATIONS

STATION/POSITION TIME  TEMP    WIND        PRES
                       AIR SEA DIR/SP/G
                 (UTC) (F)     (DEG/KT/KT) (MB)
THOMAS PT LIGHT  0100   53 66  330/  8/  9 1013.9F
BALT KEY BRIDGE  0000   52     340/  6/  7 1013.9R
COVE POINT       0000   54      40/ 10/ 12 1013.8R
LEWISETTA        0000   55 70              1012.6R
PINEY POINT      0000           20/  8/ 11   N/A

$$




USA.gov is the U.S. government's official web portal to all federal, state and local government web resources and services.